• In Belarus
  • List of Countries
  • For 7 days
  • Water Temperature
  • Satellite Maps
  • Weather Map
  • Weather Widgets
  • user-avatar
    Login

    Hourly Weather Tyrgowishte

    Today, 18 July, Wednesday

    Time Temperature Precipitation Wind Pressure Humidity
    00:00 +21°C° 0 mm 3 mps 737 mmHg 77%
    01:00 +20°C° 0 mm 3 mps 737 mmHg 79%
    02:00 +20°C° 0 mm 4 mps 736 mmHg 79%
    03:00 +19°C° 0 mm 4 mps 736 mmHg 80%
    04:00 +19°C° 0 mm 4 mps 736 mmHg 81%
    05:00 +18°C° 0 mm 4 mps 736 mmHg 82%
    06:00 +20°C° 0 mm 5 mps 736 mmHg 77%
    07:00 +21°C° 0 mm 5 mps 736 mmHg 72%
    08:00 +23°C° 0 mm 6 mps 736 mmHg 68%
    09:00 +24°C° 0.3 mm 6 mps 736 mmHg 63%
    10:00 +27°C° 0.3 mm 7 mps 736 mmHg 58%
    11:00 +28°C° 0.3 mm 7 mps 736 mmHg 54%
    12:00 +28°C° 0.3 mm 7 mps 736 mmHg 52%
    13:00 +29°C° 0.3 mm 7 mps 736 mmHg 51%
    14:00 +29°C° 0.3 mm 7 mps 736 mmHg 49%
    15:00 +28°C° 0.6 mm 7 mps 736 mmHg 52%
    16:00 +27°C° 0.6 mm 7 mps 736 mmHg 56%
    17:00 +27°C° 0.6 mm 7 mps 735 mmHg 59%
    18:00 +24°C° 0.8 mm 6 mps 735 mmHg 65%
    19:00 +23°C° 0.8 mm 6 mps 735 mmHg 70%
    20:00 +22°C° 0.8 mm 5 mps 735 mmHg 75%
    21:00 +21°C° 0.1 mm 5 mps 735 mmHg 77%
    22:00 +21°C° 0.1 mm 6 mps 736 mmHg 80%
    23:00 +20°C° 0.1 mm 6 mps 736 mmHg 82%

    Tomorrow, 19 July, Thursday

    Time Temperature Precipitation Wind Pressure Humidity
    00:00 +20°C° 0 mm 6 mps 736 mmHg 82%
    01:00 +19°C° 0 mm 6 mps 736 mmHg 82%
    02:00 +19°C° 0 mm 6 mps 736 mmHg 81%
    03:00 +19°C° 0 mm 5 mps 736 mmHg 81%
    04:00 +19°C° 0 mm 5 mps 736 mmHg 81%
    05:00 +17°C° 0 mm 5 mps 736 mmHg 81%
    06:00 +19°C° 0 mm 5 mps 736 mmHg 79%
    07:00 +20°C° 0 mm 6 mps 736 mmHg 78%
    08:00 +21°C° 0 mm 6 mps 736 mmHg 76%
    09:00 +22°C° 0.1 mm 6 mps 736 mmHg 72%
    10:00 +23°C° 0.1 mm 6 mps 737 mmHg 69%
    11:00 +26°C° 0.1 mm 5 mps 737 mmHg 65%
    12:00 +26°C° 1 mm 5 mps 737 mmHg 64%
    13:00 +27°C° 1 mm 5 mps 737 mmHg 63%
    14:00 +28°C° 1 mm 4 mps 736 mmHg 62%
    15:00 +28°C° 1.1 mm 4 mps 737 mmHg 64%
    16:00 +27°C° 1.1 mm 4 mps 737 mmHg 66%
    17:00 +27°C° 1.1 mm 4 mps 737 mmHg 67%
    18:00 +25°C° 1.1 mm 4 mps 737 mmHg 73%
    19:00 +24°C° 1.1 mm 3 mps 737 mmHg 78%
    20:00 +22°C° 1.1 mm 3 mps 737 mmHg 83%
    21:00 +21°C° 0.5 mm 3 mps 737 mmHg 86%
    22:00 +21°C° 0.5 mm 3 mps 738 mmHg 88%
    23:00 +20°C° 0.5 mm 4 mps 738 mmHg 91%

    Day after tomorrow, 20 July, Friday

    Time Temperature Precipitation Wind Pressure Humidity
    00:00 +20°C° 0.2 mm 4 mps 738 mmHg 91%
    01:00 +19°C° 0.2 mm 3 mps 738 mmHg 91%
    02:00 +19°C° 0.2 mm 3 mps 738 mmHg 92%
    03:00 +19°C° 0 mm 3 mps 738 mmHg 92%
    04:00 +19°C° 0 mm 3 mps 738 mmHg 93%
    05:00 +18°C° 0 mm 3 mps 738 mmHg 93%
    06:00 +20°C° 0 mm 3 mps 739 mmHg 89%
    07:00 +21°C° 0 mm 4 mps 739 mmHg 84%
    08:00 +23°C° 0 mm 4 mps 739 mmHg 79%
    09:00 +25°C° 0.1 mm 4 mps 739 mmHg 74%
    10:00 +27°C° 0.1 mm 4 mps 739 mmHg 69%
    11:00 +28°C° 0.1 mm 4 mps 739 mmHg 63%
    12:00 +29°C° 0.8 mm 4 mps 739 mmHg 62%
    13:00 +30°C° 0.8 mm 4 mps 739 mmHg 60%
    14:00 +30°C° 0.8 mm 4 mps 739 mmHg 58%
    15:00 +30°C° 1.7 mm 4 mps 739 mmHg 60%
    16:00 +30°C° 1.7 mm 3 mps 739 mmHg 62%
    17:00 +29°C° 1.7 mm 3 mps 739 mmHg 65%
    18:00 +28°C° 1.3 mm 3 mps 739 mmHg 69%
    19:00 +26°C° 1.3 mm 2 mps 739 mmHg 74%
    20:00 +25°C° 1.3 mm 2 mps 739 mmHg 79%
    21:00 +24°C° 1.3 mm 2 mps 739 mmHg 81%
    22:00 +23°C° 1.3 mm 2 mps 739 mmHg 83%
    23:00 +23°C° 1.3 mm 2 mps 740 mmHg 85%

    21 July, Saturday

    Time Temperature Precipitation Wind Pressure Humidity
    00:00 +21°C° 1.1 mm 3 mps 740 mmHg 85%
    01:00 +21°C° 1.1 mm 3 mps 740 mmHg 85%
    02:00 +21°C° 1.1 mm 3 mps 740 mmHg 86%
    03:00 +20°C° 0.1 mm 3 mps 740 mmHg 85%
    04:00 +20°C° 0.1 mm 3 mps 740 mmHg 85%
    05:00 +20°C° 0.1 mm 3 mps 740 mmHg 84%
    06:00 +21°C° 0.1 mm 3 mps 740 mmHg 80%
    07:00 +22°C° 0.1 mm 3 mps 740 mmHg 75%
    08:00 +25°C° 0.1 mm 4 mps 741 mmHg 71%
    09:00 +26°C° 0.5 mm 3 mps 741 mmHg 67%
    10:00 +28°C° 0.5 mm 3 mps 741 mmHg 63%
    11:00 +29°C° 0.5 mm 3 mps 741 mmHg 60%
    12:00 +30°C° 1 mm 3 mps 740 mmHg 58%
    13:00 +30°C° 1 mm 3 mps 740 mmHg 56%
    14:00 +31°C° 1 mm 2 mps 740 mmHg 54%
    15:00 +31°C° 0.4 mm 2 mps 740 mmHg 54%
    16:00 +31°C° 0.4 mm 2 mps 740 mmHg 54%
    17:00 +31°C° 0.4 mm 2 mps 740 mmHg 54%
    18:00 +29°C° 0.7 mm 1 mps 740 mmHg 60%
    19:00 +27°C° 0.7 mm 1 mps 740 mmHg 66%
    20:00 +25°C° 0.7 mm 1 mps 740 mmHg 72%
    21:00 +25°C° 0.1 mm 1 mps 740 mmHg 75%
    22:00 +24°C° 0.1 mm 1 mps 740 mmHg 77%
    23:00 +23°C° 0.1 mm 1 mps 740 mmHg 80%

    22 July, Sunday

    Time Temperature Precipitation Wind Pressure Humidity
    00:00 +23°C° 0 mm 1 mps 740 mmHg 81%
    01:00 +23°C° 0 mm 1 mps 739 mmHg 82%
    02:00 +22°C° 0 mm 1 mps 739 mmHg 83%
    03:00 +22°C° 0 mm 1 mps 739 mmHg 83%
    04:00 +22°C° 0 mm 1 mps 739 mmHg 84%
    05:00 +22°C° 0 mm 1 mps 739 mmHg 85%
    06:00 +24°C° 0 mm 1 mps 739 mmHg 78%
    07:00 +26°C° 0 mm 1 mps 739 mmHg 71%
    08:00 +28°C° 0 mm 1 mps 739 mmHg 64%
    09:00 +29°C° 0 mm 1 mps 739 mmHg 57%
    10:00 +31°C° 0 mm 1 mps 739 mmHg 50%
    11:00 +32°C° 0 mm 2 mps 738 mmHg 43%
    12:00 +34°C° 0 mm 2 mps 738 mmHg 41%
    13:00 +34°C° 0 mm 2 mps 738 mmHg 39%
    14:00 +35°C° 0 mm 2 mps 737 mmHg 37%
    15:00 +34°C° 0.1 mm 2 mps 737 mmHg 39%
    16:00 +34°C° 0.1 mm 2 mps 737 mmHg 42%
    17:00 +34°C° 0.1 mm 2 mps 736 mmHg 45%
    18:00 +31°C° 0.1 mm 2 mps 736 mmHg 52%
    19:00 +28°C° 0.1 mm 2 mps 736 mmHg 59%
    20:00 +26°C° 0.1 mm 3 mps 736 mmHg 67%
    21:00 +25°C° 0.4 mm 3 mps 736 mmHg 74%
    22:00 +24°C° 0.4 mm 3 mps 736 mmHg 80%
    23:00 +22°C° 0.4 mm 3 mps 736 mmHg 87%

    23 July, Monday

    Time Temperature Precipitation Wind Pressure Humidity
    00:00 +23°C° 3 mm 2 mps 736 mmHg 89%
    01:00 +21°C° 3 mm 2 mps 736 mmHg 91%
    02:00 +21°C° 3 mm 2 mps 736 mmHg 94%
    03:00 +21°C° 0.6 mm 2 mps 736 mmHg 94%
    04:00 +21°C° 0.6 mm 1 mps 736 mmHg 95%
    05:00 +21°C° 0.6 mm 1 mps 735 mmHg 95%
    06:00 +21°C° 0.5 mm 2 mps 735 mmHg 92%
    07:00 +23°C° 0.5 mm 2 mps 736 mmHg 89%
    08:00 +24°C° 0.5 mm 2 mps 736 mmHg 86%
    09:00 +25°C° 0.7 mm 2 mps 736 mmHg 81%
    10:00 +26°C° 0.7 mm 2 mps 736 mmHg 75%
    11:00 +27°C° 0.7 mm 2 mps 736 mmHg 70%
    12:00 +27°C° 0.2 mm 2 mps 736 mmHg 68%
    13:00 +28°C° 0.2 mm 2 mps 736 mmHg 65%
    14:00 +29°C° 0.2 mm 2 mps 736 mmHg 62%
    15:00 +28°C° 1.2 mm 3 mps 736 mmHg 65%
    16:00 +28°C° 1.2 mm 3 mps 736 mmHg 68%
    17:00 +28°C° 1.2 mm 3 mps 735 mmHg 70%
    18:00 +27°C° 0.5 mm 3 mps 736 mmHg 75%
    19:00 +25°C° 0.5 mm 2 mps 736 mmHg 80%
    20:00 +24°C° 0.5 mm 2 mps 736 mmHg 85%
    21:00 +23°C° 0.9 mm 2 mps 736 mmHg 87%
    22:00 +23°C° 0.9 mm 2 mps 737 mmHg 90%
    23:00 +21°C° 0.9 mm 2 mps 737 mmHg 93%
    Show more